Weather History for EHEH - October, 2013

Change the Weather History Date:

Monday, October 21, 2013

  Actual Average Record
Temperature  
Mean Temperature 58 °F -  
Max Temperature 64 °F 50 °F 64 °F (2000)
Min Temperature 53 °F 39 °F 32 °F (2011)
Degree Days  
Heating Degree Days 6    
Growing Degree Days 8 (Base 50)    
Moisture  
Dew Point 54 °F    
Average Humidity 84    
Maximum Humidity 94    
Minimum Humidity 67    
Precipitation  
Precipitation 0.00 in - - ()
Sea Level Pressure  
Sea Level Pressure 29.88 in    
Wind  
Wind Speed 9 mph ()    
Max Wind Speed 15 mph    
Max Gust Speed -    
Visibility 6.7 miles    
Events Rain    
Averages and records for this station are not official NWS values.
T = Trace of Precipitation, MM = Missing Value Source: Averaged Metar Reports

Daily Weather History Graph

Daily Weather History Graph

Search for Another Location

Airport or City:

Trip Planner

Search our weather history database for the weather conditions in past years. The results will help you decide how hot, cold, wet, or windy it might be!

Date:

Astronomy

Oct. 21, 2013 Rise Set
Actual Time 8:12 AM CEST 6:32 PM CEST
Civil Twilight 7:38 AM CEST 7:06 PM CEST
Nautical Twilight 6:59 AM CEST 7:45 PM CEST
Astronomical Twilight 6:21 AM CEST 8:23 PM CEST
Moon 7:56 PM CEST (10/21) 10:48 AM CEST (10/21)
Length of Visible Light 11h 28m
Length of Day
10h 19m
Waning Gibbous, 94% of the Moon is Illuminated
Oct 21
Waning Gibbous
Oct 27
Last Quarter
Nov 3
New
Nov 10
First Quarter
Nov 17
Full

Hourly Weather History & Observations

Time (CEST) Temp. Dew Point Humidity Pressure Visibility Wind Dir Wind Speed Gust Speed Precip Events Conditions
12:25 AM 55.4 °F 51.8 °F 88% 29.86 in 6.2 mi SSW 9.2 mph - N/A   Unknown
12:55 AM 55.4 °F 51.8 °F 88% 29.86 in 6.2 mi SSW 8.1 mph - N/A   Unknown
1:25 AM 55.4 °F 51.8 °F 88% 29.89 in 6.2 mi SSW 10.4 mph - N/A   Unknown
1:55 AM 55.4 °F 51.8 °F 88% 29.89 in 6.2 mi SSW 11.5 mph - N/A   Partly Cloudy
2:00 AM 55 °F 52 °F 85% 29.89 in 28 mi SSW 11.2 mph - -   Partly Cloudy
2:25 AM 55.4 °F 51.8 °F 88% 29.89 in 6.2 mi SSW 11.5 mph - N/A   Unknown
2:55 AM 55.4 °F 51.8 °F 88% 29.89 in 6.2 mi SSW 11.5 mph - N/A   Unknown
3:25 AM 55.4 °F 51.8 °F 88% 29.89 in 6.2 mi SSW 10.4 mph - N/A   Unknown
3:55 AM 53.6 °F 51.8 °F 94% 29.89 in 6.2 mi SSW 9.2 mph - N/A   Unknown
4:25 AM 53.6 °F 51.8 °F 94% 29.89 in 6.2 mi SSW 9.2 mph - N/A   Mostly Cloudy
4:55 AM 53.6 °F 51.8 °F 94% 29.89 in 6.2 mi SSW 10.4 mph - N/A   Overcast
5:00 AM 54 °F 52 °F 90% 29.89 in 19 mi SSW 8.9 mph - -   Overcast
5:25 AM 53.6 °F 51.8 °F 94% 29.89 in 6.2 mi SSW 9.2 mph - N/A   Overcast
5:31 AM 53.6 °F 51.8 °F 94% 29.89 in 6.2 mi SSW 8.1 mph - N/A   Overcast
5:55 AM 53.6 °F 51.8 °F 94% 29.89 in 6.2 mi SSW 8.1 mph - N/A   Overcast
6:25 AM 53.6 °F 51.8 °F 94% 29.89 in 6.2 mi South 8.1 mph - N/A   Overcast
6:40 AM 55.4 °F 53.6 °F 94% 29.86 in 6.2 mi South 8.1 mph - N/A   Overcast
6:42 AM 55.4 °F 53.6 °F 94% 29.86 in 6.2 mi South 8.1 mph - N/A   Overcast
6:55 AM 55.4 °F 53.6 °F 94% 29.86 in 6.2 mi South 8.1 mph - N/A   Overcast
7:21 AM 55.4 °F 53.6 °F 94% 29.89 in 6.2 mi South 6.9 mph - N/A   Overcast
7:25 AM 55.4 °F 53.6 °F 94% 29.89 in 6.2 mi South 6.9 mph - N/A   Overcast
7:34 AM 55.4 °F 53.6 °F 94% 29.89 in 6.2 mi South 6.9 mph - N/A   Overcast
7:55 AM 55.4 °F 53.6 °F 94% 29.89 in 6.2 mi South 5.8 mph - N/A   Overcast
8:00 AM 55 °F 53 °F 92% 29.89 in 12 mi South 6.7 mph - -   Partly Cloudy
8:25 AM 55.4 °F 53.6 °F 94% 29.89 in 6.2 mi South 9.2 mph - N/A   Overcast
8:38 AM 55.4 °F 53.6 °F 94% 29.89 in 6.2 mi South 8.1 mph - N/A   Mostly Cloudy
8:55 AM 55.4 °F 53.6 °F 94% 29.89 in 6.2 mi South 8.1 mph - N/A   Mostly Cloudy
9:25 AM 57.2 °F 53.6 °F 88% 29.89 in 6.2 mi South 8.1 mph - N/A   Overcast
9:27 AM 57.2 °F 53.6 °F 88% 29.89 in 6.2 mi South 8.1 mph - N/A   Mostly Cloudy
9:29 AM 57.2 °F 53.6 °F 88% 29.89 in 6.2 mi South 8.1 mph - N/A   Mostly Cloudy
9:48 AM 57.2 °F 55.4 °F 94% 29.89 in 6.2 mi South 8.1 mph - N/A   Mostly Cloudy
9:55 AM 57.2 °F 55.4 °F 94% 29.89 in 6.2 mi South 8.1 mph - N/A   Mostly Cloudy
10:06 AM 57.2 °F 55.4 °F 94% 29.89 in 6.2 mi South 8.1 mph - N/A   Overcast
10:25 AM 59.0 °F 55.4 °F 88% 29.89 in 6.2 mi South 9.2 mph - N/A   Overcast
10:55 AM 59.0 °F 55.4 °F 88% 29.89 in 6.2 mi South 10.4 mph - N/A   Overcast
11:00 AM 59 °F 55 °F 83% 29.91 in 12 mi South 11.2 mph - - Rain Rain
11:13 AM 60.8 °F 55.4 °F 82% 29.89 in 6.2 mi SSW 11.5 mph - N/A   Overcast
11:25 AM 60.8 °F 55.4 °F 82% 29.89 in 6.2 mi SSW 11.5 mph - N/A   Overcast
11:37 AM 60.8 °F 55.4 °F 82% 29.92 in 6.2 mi SSW 10.4 mph - N/A   Overcast
11:41 AM 60.8 °F 55.4 °F 82% 29.92 in 6.2 mi SSW 11.5 mph - N/A   Overcast
11:55 AM 60.8 °F 55.4 °F 82% 29.92 in 6.2 mi SSW 10.4 mph - N/A   Overcast
12:25 PM 62.6 °F 55.4 °F 77% 29.92 in 6.2 mi SSW 11.5 mph - N/A   Overcast
12:55 PM 64.4 °F 55.4 °F 73% 29.92 in 6.2 mi SSW 15.0 mph - N/A   Mostly Cloudy
1:25 PM 62.6 °F 55.4 °F 77% 29.92 in 6.2 mi SSW 12.7 mph - N/A   Mostly Cloudy
1:29 PM 62.6 °F 55.4 °F 77% 29.92 in 6.2 mi SSW 12.7 mph - N/A   Mostly Cloudy
1:43 PM 64.4 °F 55.4 °F 73% 29.89 in 6.2 mi SSW 11.5 mph - N/A   Mostly Cloudy
1:55 PM 64.4 °F 55.4 °F 73% 29.89 in 6.2 mi SSW 10.4 mph - N/A   Mostly Cloudy
2:00 PM 64 °F 56 °F 68% 29.91 in 17 mi SSW 11.2 mph - -   Partly Cloudy
2:25 PM 64.4 °F 55.4 °F 73% 29.89 in 6.2 mi SSW 12.7 mph - N/A   Mostly Cloudy
2:55 PM 64.4 °F 55.4 °F 73% 29.89 in 6.2 mi SSW 12.7 mph - N/A   Overcast
3:25 PM 64.4 °F 55.4 °F 73% 29.89 in 6.2 mi South 12.7 mph - N/A   Overcast
3:55 PM 64.4 °F 55.4 °F 73% 29.89 in 6.2 mi South 10.4 mph - N/A   Overcast
4:25 PM 64.4 °F 57.2 °F 77% 29.89 in 6.2 mi South 8.1 mph - N/A   Overcast
4:55 PM 64.4 °F 55.4 °F 73% 29.89 in 6.2 mi South 9.2 mph - N/A   Overcast
5:00 PM 64 °F 56 °F 67% 29.89 in 28 mi South 8.9 mph - -   Overcast
5:25 PM 64.4 °F 55.4 °F 73% 29.86 in 6.2 mi South 8.1 mph - N/A   Mostly Cloudy
5:55 PM 64.4 °F 57.2 °F 77% 29.86 in 6.2 mi SSE 6.9 mph - N/A   Mostly Cloudy
6:25 PM 62.6 °F 55.4 °F 77% 29.86 in 6.2 mi SSE 8.1 mph - N/A   Overcast
6:55 PM 62.6 °F 55.4 °F 77% 29.86 in 6.2 mi SSE 8.1 mph - N/A   Overcast
7:25 PM 62.6 °F 55.4 °F 77% 29.86 in 6.2 mi South 8.1 mph - N/A   Overcast
7:55 PM 62.6 °F 55.4 °F 77% 29.86 in 6.2 mi SSE 8.1 mph - N/A   Overcast
8:00 PM 62 °F 55 °F 71% 29.87 in 28 mi SSE 8.9 mph - -   Partly Cloudy
8:25 PM 60.8 °F 55.4 °F 82% 29.86 in 6.2 mi South 8.1 mph - N/A   Overcast
8:55 PM 60.8 °F 53.6 °F 77% 29.83 in 6.2 mi South 10.4 mph - N/A   Unknown
9:25 PM 59.0 °F 53.6 °F 82% 29.83 in 6.2 mi South 6.9 mph - N/A   Unknown
9:55 PM 59.0 °F 53.6 °F 82% 29.86 in 6.2 mi South 5.8 mph - N/A   Unknown
10:25 PM 59.0 °F 53.6 °F 82% 29.86 in 6.2 mi SSE 6.9 mph - N/A   Unknown
10:55 PM 59.0 °F 53.6 °F 82% 29.83 in 6.2 mi South 6.9 mph - N/A   Unknown
11:00 PM 58 °F 54 °F 80% 29.86 in 28 mi South 6.7 mph - -  
11:25 PM 59.0 °F 53.6 °F 82% 29.83 in 6.2 mi South 6.9 mph - N/A   Unknown
11:55 PM 57.2 °F 53.6 °F 88% 29.83 in 6.2 mi South 5.8 mph - N/A   Unknown